Regional Weather Roundup
Issued by NWS

Home | Current Version | Previous Version | Graphics & Text | Print | Product List | Glossary On
Versions: 1 2 3 4 5 6 7 8 9 10 11 12 13 14 15 16 17 18 19 20 21 22 23 24 25 26 27 28 29 30 31 32 33 34 35 36 37 38 39 40 41 42 43 44 45 46 47 48 49 50
000
ASUS43 KDTX 241601
RWRMI
MICHIGAN HOURLY REGIONAL WEATHER ROUNDUP
NATIONAL WEATHER SERVICE DETROIT/PONTIAC MI
1100 AM EST MON NOV 24 2014

NOTE: "FAIR" INDICATES FEW OR NO CLOUDS BELOW 12,000 FEET WITH NO
SIGNIFICANT WEATHER AND/OR OBSTRUCTION TO VISIBILITY.

MIZ047>049-052>055-059>063-066>070-074>076-081>083-241700-
SOUTHEAST LOWER MICHIGAN

CITY           SKY/WX    TMP DP  RH WIND       PRES   REMARKS
ADRIAN         CLOUDY    55  51  86 SW25G32   29.14R
ALMA           CLOUDY    50  49  96 SW6       29.06R
ANN ARBOR      CLOUDY    55  50  83 S10       29.12R
BAD AXE        CLOUDY    54  54  99 SW17G23   29.06S
CARO           CLOUDY    54  52  94 S12       29.07R
DETROIT CITY   LGT RAIN  56  52  86 S12G21    29.14R
DETROIT        LGT RAIN  55  52  89 S12       29.14F
FLINT          CLOUDY    57  52  83 S12       29.07F
GROSSE ILE     RAIN      52  48  87 S17G29    29.15R
HILLSDALE      CLOUDY    56  52  87 SW16G28   29.12R
HOWELL         CLOUDY    54  52  92 S10G17    29.08S

CITY           SKY/WX    TMP DP  RH WIND       PRES   REMARKS
LAMBERTVILLE   CLOUDY    59  50  72 SW16G25   29.17R
LANSING        CLOUDY    53  51  93 SW6       29.07S
LAPEER         CLOUDY    57  51  80 SW14G21   29.09R
MASON          CLOUDY    55  52  92 SW7       29.08R
MONROE         DRIZZLE   55  52  88 SW18G25   29.14R
MT. CLEMENS    LGT RAIN  53  53 100 S13       29.10S
PONTIAC        PTSUNNY   55  49  80 S13G23    29.10S
PORT HOPE        N/A     55  50  83 SW10G20   29.03F
PORT HURON     RAIN      54  52  94 SW9G22    29.13R
TRI CITIES     CLOUDY    53  49  86 SW12      29.06S
TROY           RAIN      57  51  79 S9G28     29.14S
SAGINAW HB     CLOUDY    54  54 100 S13       29.05S
$$
MIZ043>046-050>051-056>058-064>065-071>073-077>080-241700-
SOUTHWEST LOWER MICHIGAN

CITY           SKY/WX    TMP DP  RH WIND       PRES   REMARKS
BATTLE CREEK   LGT RAIN  54  51  90 SW9       29.07F FOG
BENTON HARBOR  RAIN      47  46  97 SW21G28   29.12R FOG
BIG RAPIDS     CLOUDY    47  47 100 SW6       29.03S FOG
COLDWATER      CLOUDY    56  51  84 SW15G23   29.09S
FREMONT        LGT RAIN  46  45  98 SW5       29.05S
HOLLAND        LGT RAIN  50  48  93 SW12      29.07R FOG
GRAND RAPIDS   CLOUDY    50  49  96 SW8       29.06S FOG
IONIA          DRIZZLE   51  50  97 SW7       29.06R
KALAMAZOO      LGT RAIN  52  50  93 W6        29.08S FOG
LUDINGTON      RAIN      43  43  99 SW6       29.05R
MARSHALL       RAIN      53  51  94 S8G20     29.07S
MOUNT PLEASANT CLOUDY    50  49  95 SW12      29.04R
MUSKEGON       LGT RAIN  47  45  93 SW9       29.06S VSB 1
SOUTH HAVEN    MIX PCPN  49  48  97 SW10G18   29.10R
$$
MIZ016>042-241700-
NORTHERN LOWER MICHIGAN

CITY           SKY/WX    TMP DP  RH WIND       PRES   REMARKS
ALPENA         CLOUDY    49  46  90 SW13G18   28.98R
BEAVER ISLAND  RAIN      43  43  98 W9        28.99R
BELLAIRE       LGT RAIN  46  46  97 CALM      29.01R
CADILLAC       FOG       45  45 100 SW6       29.01R VSB 1/4
CHARLEVOIX     LGT RAIN  43  43 100 W12       29.03R
FRANKFORT      CLOUDY    43  42  99 W5        29.03R FOG
GAYLORD        FOG       43  43 100 SW9       28.99R VSB<1/4
GRAYLING       CLOUDY    48  48 100 SW7       29.01S FOG
HARBOR SPRINGS LGT RAIN  42  42  99 W6        28.99R
HOUGHTON LAKE  CLOUDY    46  45  96 SW7       29.02R
MANISTEE       CLOUDY    45  41  87 W6        29.04R
OSCODA         DRIZZLE   50  50  99 SW13      29.01S
PELLSTON       LGT RAIN  43  42  97 W8        28.99R
ROGERS CITY    CLOUDY    48  47  97 W13G20    28.98R
TRAVERSE CITY  CLOUDY    47  45  93 CALM      29.00R
$$
MIZ007>008-015-241700-
EASTERN UPPER MICHIGAN

CITY           SKY/WX    TMP DP  RH WIND       PRES   REMARKS
KINROSS        CLOUDY    39  39 100 W8        28.93R WCI  34
MACKINAC ISLAN FOG       41  41 100 SW12G17   28.96R VSB<1/4
NEWBERRY       CLOUDY    39  39 100 W14       28.95R FOG     WCI  30
S. S. MARIE    LGT RAIN  40  40 100 W6        28.91R VSB 1
MUNISING         N/A     39  36  89 NW21G29   29.02R WCI  29
$$
MIZ004>006-011>014-085-241700-
CENTRAL UPPER MICHIGAN

CITY           SKY/WX    TMP DP  RH WIND       PRES   REMARKS
MANISTIQUE     LGT RAIN  41  41 100 NW9       28.98R
ESCANABA       CLOUDY    43  39  87 NW10      29.02R
MENOMINEE      CLOUDY    43  39  87 NW6       29.03R
SAWYER-GWINN   CLOUDY    36  34  93 NW13G23   29.04R FOG     WCI  27
$$
MIZ001>003-009>011-084-241700-
WESTERN UPPER MICHIGAN

CITY           SKY/WX    TMP DP  RH WIND       PRES   REMARKS
IRON MOUNTAIN  CLOUDY    37  35  92 NW15      29.05R WCI  28
HOUGHTON       SNOW      28  24  85 N28G36    29.11R VSB 1/2 WCI  13
COPPER HARBOR    N/A     31  28  89 NE26G35   29.12R WCI  17
IRONWOOD       CLOUDY    32  30  93 N15G21    29.16R VSB 3/4 WCI  22
$$

ABBREVIATIONS USED IN REMARKS
   TC - TEMPERATURE IN CELSIUS
  WCI - WIND CHILL INDEX
   HX - HEAT INDEX
  VSB - VISIBILITY




USA.gov is the U.S. government's official web portal to all federal, state and local government web resources and services.